sat.trackr.live / text

‹ back to catalog

LEMUR-2-FINNIAN

NORAD 66782 · 2025-276DX

PAYLOAD ACTIVE UNKNOWN

§ Identity

Operator
Country
US
Launch date
2025-11-28
Launch site
AFWTR
Launch vehicle
Mass (kg)
RCS (m²)

Purposes: earth_obs

External: N2YO · Heavens-Above · Gunter

§ Orbital elements

Epoch: 2026-05-25T03:15:43.782624Z

Period
96.00 min
Inclination
97.5243°
Eccentricity
0.0007290
Mean motion
15.00040071 rev/d
Perigee alt
561.7 km
Apogee alt
571.8 km
Semi-major
6,944.9 km
B*
4.6732e-4
RAAN
216.8724°
Arg perigee
162.5064°
Mean anomaly
197.6412°
Rev number
1,654

§ Raw data

LEMUR-2-FINNIAN1 66782U 25276DX  26145.13592341  .00005765  00000+0  46732-3 0  99942 66782  97.5243 216.8724 0007290 162.5064 197.6412 15.00040071 16547

JSON: /api/v1/satellites/66782 · /tle

For live sub-satellite position, see the globe view (requires WebGL).

§ Visibility from observer

Set your observer location to see the next 7 days of passes ≥ 10°. The values pass through the URL so the page stays shareable.

No JS? Fill the form by hand. The geolocation button needs JavaScript.